Torna al catalogo

BEIJING-3

AttivoScienzaSSO
NORAD 48843·PAYLOAD·🇨🇳 China
Questo nome del satellite non è ancora stato confermato da fonti ufficiali.

Lanciato Jun 11, 2021 da Taiyuan Satellite Launch Center

Loading…

Prossimi Passaggi (prossime 24 ore)

TLE

AggiornatoSource: Space-Track

Epoca: Sep 14, 2026, 15:39 UTC

1 48843U 21050D   26257.65238382  .00003105  00000-0  13593-3 0  9997
2 48843  97.3271 331.6533 0009953 310.4446  49.5922 15.22731610292585

Traccia BEIJING-3 in tempo reale con AllMySat

Download on the App Store